Regional Weather Roundup
Issued by NWS Green Bay, WI

Home | Current Version | Previous Version | Graphics & Text | Print | Product List | Glossary Off
Versions: 1 2 3 4 5 6 7 8 9 10 11 12 13 14 15 16 17 18 19 20 21 22 23 24 25 26 27 28 29 30 31 32 33 34 35 36 37 38 39 40 41 42 43 44 45 46 47 48 49 50

000
ASUS43 KGRB 040600
RWRGRB

NORTH-CENTRAL AND NORTHEAST WISCONSIN REGIONAL WEATHER ROUNDUP
NATIONAL WEATHER SERVICE GREEN BAY WI
100 AM CDT TUE AUG 04 2015

WIZ005-009-010>012-018-019-040700-
NORTH CENTRAL WISCONSIN

CITY           SKY/WX    TMP DP  RH WIND       PRES   REMARKS
IRONWOOD       MOCLDY    57  57 100 SW3       29.86S
MANITOWISH WTR NOT AVBL
ARBOR VITAE    NOT AVBL
EAGLE RIVER    NOT AVBL
LAND O LAKES   NOT AVBL
RHINELANDER    CLOUDY    59  55  87 CALM      29.91R
PHILLIPS       NOT AVBL
ANTIGO         NOT AVBL
TOMAHAWK       NOT AVBL
MERRILL        NOT AVBL
$$

WIZ013-073-040700-
NORTHEAST WISCONSIN

CITY           SKY/WX    TMP DP  RH WIND       PRES   REMARKS
IRON MOUNTAIN  MOCLDY    58  56  93 W5        29.85R
MARINETTE      CLOUDY    61  54  77 N5        29.84F
$$

WIZ017-030-035>037-045-040700-
CENTRAL WISCONSIN

CITY           SKY/WX    TMP DP  RH WIND       PRES   REMARKS
MEDFORD        NOT AVBL
WAUSAU         CLOUDY    64  55  72 NW9       29.89R
MOSINEE        NOT AVBL
MARSHFIELD     CLOUDY    62  53  72 W6        29.91R
WISC RAPIDS    CLOUDY    61  52  72 SW5       29.91S
STEVENS POINT  NOT AVBL
WAUPACA        NOT AVBL
SHAWANO        NOT AVBL
CLINTONVILLE   NOT AVBL
$$

WIZ038-039-048-051-040700-
FOX VALLEY

CITY           SKY/WX    TMP DP  RH WIND       PRES   REMARKS
NWS GREEN BAY  CLEAR     61  56  83 SW3       29.88R
APPLETON       NOT AVBL
OSHKOSH        CLEAR     62  53  72 W3        29.89S
FOND DU LAC    CLEAR     61  54  77 SW7       29.90S
$$

WIZ022-050-052-040700-
EAST CENTRAL WISCONSIN

CITY           SKY/WX    TMP DP  RH WIND       PRES   REMARKS
STURGEON BAY   MOCLDY    63  54  72 NW14      29.89R
MANITOWOC      NOT AVBL
SHEBOYGAN      CLEAR     61  55  81 W5        29.89S
$$

LMZ563-521-522-541>543-040700-
LAKESHORE

STATION/POSITION TIME  TEMP    WIND        PRES    VSBY  WAVE
                       AIR SEA DIR/SP/G                  HT/PER
                 (UTC) (F)     (DEG/KT/KT) (MB)    (MI)  (FT/S)
SHEBOYGAN LKSHOR 0500   68     270/  8/  9 1012.0R
KEWAUNEE LKSHORE 0500   62     300/  3/  5 1010.7R
ALGOMA MARINA    0512           CALM  /  2   N/A
NORTHPORT PIER   0500   66     260/  4/  6 1010.8R
N MID LAKE BUOY  0450   65 68  200/  4/  4 1009.8S         1
S GREEN BAY BUOY 0500   67 71  260/  8/ 10 1012.2
SISTER BAY LKSHO 0518   68     320/ 12/ 13   N/A
CHAMBERS ISLAND  0500   66     270/  3/  8 1010.8R
MENOMINEE LKSHOR 0500   66     270/  6/ 10 1011.5R
$$



USA.gov is the U.S. government's official web portal to all federal, state and local government web resources and services.